This is the latest recevied weather packets stored in our database for station/object KD7AWQ. If no packets are shown the sender has not sent any weather packets the latest 10 day(s).
| Time | Temp. | Humidity | Pressure | Rain* | Wind** | Luminosity | Snow |
|---|---|---|---|---|---|---|---|
| 1778108884 | 22.78° C | 19% | 1183.1 hPa | 0 mm | - | 602 W/m² | - |
| 1778108581 | 22.78° C | 19% | 1183.8 hPa | 0 mm | - | 621 W/m² | - |
| 1778108277 | 22.78° C | 19% | 1183.5 hPa | 0 mm | - | 644 W/m² | - |
| 1778107974 | 23.33° C | 19% | 1183.5 hPa | 0 mm | - | 663 W/m² | - |
| 1778107671 | 22.78° C | 19% | 1183.3 hPa | 0 mm | - | 682 W/m² | - |
| 1778107369 | 22.78° C | 19% | 1183.2 hPa | 0 mm | - | 701 W/m² | - |
| 1778107064 | 23.33° C | 19% | 1183.5 hPa | 0 mm | - | 720 W/m² | - |
| 1778106760 | 23.89° C | 19% | 1183.3 hPa | 0 mm | - | 742 W/m² | - |
| 1778106457 | 23.89° C | 19% | 1183.7 hPa | 0 mm | - | 759 W/m² | - |
| 1778106153 | 23.89° C | 18% | 1183.5 hPa | 0 mm | - | 777 W/m² | - |
| 1778105851 | 23.89° C | 19% | 1183.3 hPa | 0 mm | - | 794 W/m² | - |
| 1778105549 | 23.33° C | 19% | 1183.7 hPa | 0 mm | - | 811 W/m² | - |
| 1778105246 | 22.78° C | 19% | 1183.7 hPa | 0 mm | - | 827 W/m² | - |
| 1778104940 | 22.22° C | 19% | 1183.8 hPa | 0 mm | - | 843 W/m² | - |
| 1778104637 | 22.78° C | 18% | 1183.7 hPa | 0 mm | - | 858 W/m² | - |
| 1778104333 | 22.78° C | 18% | 1183.7 hPa | 0 mm | - | 873 W/m² | - |
| 1778104030 | 21.67° C | 19% | 1183.7 hPa | 0 mm | - | 886 W/m² | - |
| 1778103727 | 21.67° C | 20% | 1184 hPa | 0 mm | - | 901 W/m² | - |
| 1778103425 | 22.22° C | 18% | 1183.9 hPa | 0 mm | - | 915 W/m² | - |
| 1778103123 | 23.33° C | 19% | 1183.9 hPa | 0 mm | - | 928 W/m² | - |
| 1778102820 | 22.78° C | 20% | 1183.9 hPa | 0 mm | - | 940 W/m² | - |
| 1778102515 | 22.22° C | 19% | 1183.9 hPa | 0 mm | - | 952 W/m² | - |
| 1778102210 | 22.22° C | 20% | 1184 hPa | 0 mm | - | 963 W/m² | - |
| 1778101907 | 22.78° C | 20% | 1184 hPa | 0 mm | - | 976 W/m² | - |
| 1778101604 | 22.78° C | 21% | 1183.7 hPa | 0 mm | - | 984 W/m² | - |
* Rain latest hour (hover to see other rain measurements)
** Current wind speed in m/s (hover to see current wind gust speed)